Regional Weather Roundup
Issued by NWS Newport/Morehead, NC

Current Version | Previous Version | Graphics & Text | Print | Product List | Glossary On
Versions: 1 2 3 4 5 6 7 8 9 10 11 12 13 14 15 16 17 18 19 20 21 22 23 24 25 26 27 28 29 30 31 32 33 34 35 36 37 38 39 40 41 42 43 44 45 46 47 48 49 50
000 ASUS42 KMHX 171610 RWRMHX WEATHER ROUNDUP FOR EASTERN NORTH CAROLINA NATIONAL WEATHER SERVICE NEWPORT/MOREHEAD CITY NC 1100 AM EST WED DEC 17 2014 NOTE: "FAIR" INDICATES FEW OR NO CLOUDS BELOW 12,000 FEET WITH NO SIGNIFICANT WEATHER AND/OR OBSTRUCTIONS TO VISIBILITY NCZ015>017-031-032-045>047-102-103-171700- NORTH COAST CITY SKY/WX TMP DP RH WIND PRES REMARKS EDENTON SUNNY 54 43 68 NW7 30.08F ELIZABETH CITY SUNNY 56 44 64 W9 30.07S KITTY HAWK SUNNY 51 44 78 W6 30.06S MANTEO SUNNY 50 42 73 NW7 30.08S $$ NCZ045>047-081-094-103-104-171700- CENTRAL COAST CITY SKY/WX TMP DP RH WIND PRES REMARKS FRISCO SUNNY 51 44 77 NW6 30.08F SWANQUARTER N/A 54 N/A N/A W12 30.03F $$ NCZ095-097-098-100-101-171700- SOUTHERN COAST CITY SKY/WX TMP DP RH WIND PRES REMARKS BEAUFORT SUNNY 57 42 57 NW12 30.09F CEDAR ISLAND N/A 52 N/A N/A W7G13 30.12F JACKSONVILLE SUNNY 56 41 57 NW7 30.10F PINEY ISLAND NOT AVBL WILMINGTON SUNNY 57 41 55 NW8 30.12F $$ NCZ011>013-027>030-043-044-078>080-089-090>093-098-171700- COASTAL PLAIN CITY SKY/WX TMP DP RH WIND PRES REMARKS AHOSKIE SUNNY 52 42 68 SW3 30.08F CLINTON SUNNY 55 43 63 NW6 30.12F ELIZABETHTOWN SUNNY 54 41 61 NW5 30.12F GOLDSBORO SUNNY 56 47 73 NW10 30.08F GREENVILLE SUNNY 55 41 58 NW6 30.11F HAVELOCK NOT AVBL KENANSVILLE SUNNY 55 40 55 NW7 30.12F KINSTON SUNNY 55 41 58 NW12 30.10F NEW BERN SUNNY 58 41 53 NW12 30.10F RICHLANDS SUNNY 55 37 50 W7 30.11F ROCKY MOUNT SUNNY 56 40 55 NW9 30.09F WASHINGTON SUNNY 54 42 63 NW6 30.09F WHITEVILLE SUNNY 55 40 58 NW3 30.13F $$ AMZ130-135-150-152-154-156-158-170-250-252-270-ANZ085-086-088-633-658-670-171700- MARINE OBSERVATIONS STATION/POSITION TIME TEMP WIND PRES WAVE SWELL AIR SEA DIR/SP/G HT/PER HT/PER (UTC) (F) (DEG/KT/KT) (MB) (FT/S) (FT/S) CHESAPEAKE LIGHT 1500 48 280/ 8/ 9 1018.3 64 E VA BEACH 1600 50 54 300/ 10/ 14 1016.7 4/ 7 3/ 7 DUCK 1600 49 48 310/ 4/ 6 1017.3 2 E DUCK 1600 49 N/A 2/11 10 NE DUCK 1600 51 N/A 2/ 8 OREGON INLET 1600 51 50 300/ 8/ 11 1018.1 13E OREGON INLT 1600 53 N/A 3/ 8 HATTERAS CG 1600 49 53 320/ 8/ 10 1019.0 DIAMOND BUOY 1600 54 1018.8 4/ 8 17 S OCRACOKE NOT AVBL CAPE LOOKOUT 1500 53 310/ 7/ 9 1019.5 BEAUFORT LAB 1600 56 52 340/ 6/ 10 1018.0 30 SE NEW RIVER 1600 55 61 340/ 14/ 16 1019.7 4/ 7 2/ 7 5 SE WRIGHTSVLE 1500 53 55 340/ 12/ 14 1020.3 225 S CAPE HAT 1458 69 73 300/ 14/ 16 1019.2 9/ 8 7/ 8 41 SE CHARLESTON 1600 59 73 10/ 8/ 12 1020.7 3/ 4 2/ 4 $$

USA.gov is the U.S. government's official web portal to all federal, state and local government web resources and services.